Погода в Катумбела

Ангола     12°29′37″S   13°29′23″E
темп.,
°C
ветер,
м/с
пор.,
м/с
влажн.,
%
обл.,
%
осадки,
мм/ч
давл.,
гПа
погр.,
м
13 июня, вс
вс1301:00+21ю11825 0.0 101367
04:00+21юв11725 0.0 101370
07:00+21юв22375 0.0 101458
10:00+28с222421 0.0 1015393
13:00+27ссз44525 0.0 1013322
16:00+26ссз22630 0.0 1011367
19:00+22ссв127788 0.0 101264
22:00+22юз4579100 0.0 1014201
14 июня, пн
пн1401:00+22юв227599 0.0 101361
04:00+21юв2250100 0.0 101155
07:00+22в22401 0.0 101378
10:00+27с433515 0.0 1014402
13:00+27ссз555829 0.0 1013573
16:00+26ссз336057 0.0 1012493
19:00+22сз00799 0.0 101355
22:00+22ююв227866 0.0 101468
15 июня, вт
вт1501:00+21ю226692 0.0 101370
04:00+21юв215695 0.0 101154
07:00+21юв114977 0.0 101248
10:00+27ссз223775 0.0 1013351
13:00+27сз43493 0.0 1011366
16:00+26зсз22540 0.0 1010441
19:00+22з11725 0.0 1012105
22:00+21юв11755 0.0 101474
16 июня, ср
ср1601:00+20ююв11740 0.0 101259
04:00+20вюв11710 0.0 101273
07:00+20вюв11550 0.0 101367
10:00+26ссз22450 0.0 1014424
13:00+25сз43610 0.0 1013471
16:00+25ссз22640 0.0 1012420
19:00+21зюз11800 0.0 101386
22:00+20юв11820 0.0 1014101
17 июня, чт
чт1701:00+20в11830 0.0 101384
04:00+19в21780 0.0 101384
07:00+20в22620 0.0 101587
10:00+24сз21510 0.0 1016455
13:00+25ссз44660 0.0 1014524
16:00+24зсз32681 0.0 1013515
19:00+21з11813 0.0 1015158
22:00+21вюв11824 0.0 1017105